Theta_e
308 308 307 306 306 307 307 308 309 309 310 311 311 311 311 308 305 305 306 309 311 310 311 320 322 325 326 327 327 325 330 328 326 328 327 329 330 327 326 329 328 327 327 327 324
308 308 308 308 308 306 306 306 307 309 309 309 310 310 310 309 309 309 308 308 309 309 321 320 322 325 327 328 330 331 331 328 326 327 328 328 329 329 329 330 330 329 327 324 324
307 308 308 308 308 308 307 307 306 307 307 309 308 309 309 309 306 306 314 312 311 307 315 317 321 326 327 328 329 330 332 329 328 327 328 328 329 329 329 329 329 330 330 330 327
306 307 307 306 307 307 307 308 308 308 307 307 308 308 308 308 308 310 312 308 308 315 312 312 323 325 325 329 329 330 330 330 329 328 327 328 328 329 330 330 329 329 329 329 328
306 306 306 307 307 307 307 306 307 307 307 307 307 308 308 311 308 313 316 310 308 320 312 314 322 322 322 325 326 330 329 329 330 330 329 329 329 329 328 328 328 329 329 328 327
305 305 306 306 306 306 306 306 306 306 307 308 307 307 307 308 307 308 308 307 306 314 315 312 314 320 321 324 325 326 326 327 328 328 328 328 327 326 326 326 325 326 327 327 327
304 304 305 305 306 306 306 306 306 305 306 308 307 306 307 307 306 309 308 308 307 305 309 312 314 316 318 319 319 321 323 323 322 324 323 321 320 320 321 322 324 325 325 326 327
304 303 304 305 305 306 306 305 305 306 307 309 308 307 306 305 306 307 308 309 308 307 308 308 315 316 317 316 317 318 318 320 320 319 319 319 320 320 321 322 323 324 325 326 326
304 304 304 305 305 305 303 303 302 306 307 308 308 306 307 305 306 308 309 309 310 310 309 307 311 317 317 318 319 319 321 320 319 317 318 320 320 320 320 321 322 323 324 324 326
304 304 304 304 304 304 304 302 306 306 306 306 306 305 304 306 309 308 310 310 310 309 309 309 312 314 316 318 322 320 319 319 318 318 317 318 320 320 320 322 323 324 325 326 326
304 304 304 303 304 304 303 303 307 307 305 307 306 306 305 306 307 307 309 310 310 309 310 310 311 316 315 317 318 321 320 321 319 317 318 320 322 322 322 322 323 324 325 326 327
304 304 304 304 304 303 302 303 303 303 306 305 305 306 306 307 307 307 307 310 310 309 310 309 312 314 315 315 315 315 316 317 317 317 319 321 322 322 322 321 323 324 325 326 327
304 304 304 304 303 303 302 303 303 304 306 307 306 307 307 307 308 308 309 309 310 310 310 312 313 312 313 316 315 315 316 317 317 321 321 321 322 321 322 323 322 324 326 327 328
304 304 304 304 303 302 303 303 303 303 308 306 308 308 308 308 310 308 307 309 309 311 310 311 312 311 312 314 316 318 316 316 317 319 322 321 325 323 321 321 324 327 328 327 325
301 302 303 303 303 303 303 302 303 303 303 304 310 308 308 309 309 310 308 309 311 311 310 311 310 311 312 313 316 317 318 318 318 320 322 321 321 322 323 321 322 323 328 327 327
301 303 303 303 302 302 302 303 303 308 303 306 307 307 307 308 308 309 309 308 310 313 311 312 310 311 312 313 315 317 318 321 321 321 323 322 320 323 321 321 322 324 327 327 328
301 300 301 302 303 302 303 304 306 306 303 307 307 306 306 308 309 307 311 309 311 314 315 312 311 311 311 313 315 318 319 322 322 323 325 321 322 322 322 323 325 326 327 328 329
301 301 302 302 303 303 303 306 305 302 304 306 306 305 305 306 307 305 309 315 309 313 316 316 315 312 311 312 315 318 320 321 325 325 322 321 320 320 323 323 324 325 327 328 329
300 301 303 303 303 302 305 304 302 307 305 305 305 304 306 305 306 305 309 317 313 309 312 317 316 314 312 313 314 317 319 318 319 322 321 322 324 325 326 326 327 326 326 329 330
300 300 302 304 303 303 305 303 304 304 304 304 306 306 306 305 306 306 308 311 313 312 313 315 317 315 313 312 315 317 318 317 318 319 320 324 326 323 327 328 328 329 329 330 329
299 303 301 304 304 305 305 304 304 304 304 304 305 306 304 304 308 307 305 307 311 312 311 314 317 316 314 313 314 314 317 317 317 319 318 318 321 329 328 330 330 331 331 330 330
300 304 301 304 305 305 305 305 304 305 304 305 305 305 306 306 307 308 307 308 309 309 314 313 318 318 316 315 315 315 316 318 317 320 318 320 320 323 328 327 329 331 330 329 329
300 301 300 301 305 305 303 303 305 305 305 306 305 305 305 305 305 307 308 308 309 309 310 313 318 318 318 316 315 317 315 317 318 321 319 318 321 323 324 326 327 330 329 328 329
301 303 303 304 302 303 301 303 304 304 306 306 306 305 305 306 305 305 306 306 309 307 310 311 316 318 318 317 318 316 315 316 318 319 318 318 318 321 324 324 327 329 330 329 329
300 302 302 302 302 301 301 302 305 305 305 306 307 307 308 307 307 307 307 308 310 309 311 312 314 314 315 314 316 319 316 315 316 317 317 319 319 320 323 322 327 329 329 329 330
303 303 302 302 301 301 301 304 305 305 304 305 307 306 307 308 307 308 308 310 313 311 311 312 315 313 315 315 316 318 319 316 315 316 316 318 320 321 321 324 327 329 329 330 330
299 301 302 302 301 301 302 303 303 303 304 304 306 307 307 307 307 307 307 308 309 311 313 312 313 315 318 314 316 318 318 319 317 316 316 317 318 319 321 323 325 331 330 330 330
Wind_Speed
15 15 16 15 14 14 15 16 16 17 17 17 18 21 22 22 24 14 12 11 4 7 11 5 9 13 9 7 5 3 5 11 8 7 7 3 5 2 4 7 5 7 7 7 7
16 16 15 16 17 16 15 15 15 16 17 17 17 18 21 21 18 12 26 26 28 17 14 14 9 13 7 7 7 9 9 13 10 10 8 2 5 7 6 12 19 10 9 8 7
17 17 19 20 19 18 19 17 16 14 15 15 16 17 18 16 7 6 5 3 12 25 21 13 13 14 11 8 10 9 18 24 18 11 7 12 13 8 14 18 20 14 19 19 14
17 18 18 19 20 20 20 19 18 17 16 15 15 16 16 3 8 7 7 8 18 16 22 18 14 10 11 14 15 14 16 24 24 14 11 15 11 13 16 26 25 19 17 19 17
19 19 20 19 19 20 21 20 20 19 18 18 13 13 7 3 9 8 12 16 12 8 23 21 20 19 18 15 18 15 20 20 19 20 18 19 21 20 24 25 26 21 19 17 16
21 20 20 21 20 20 21 23 24 22 20 17 13 10 5 11 12 18 23 26 6 5 8 17 9 15 13 13 20 12 21 23 21 19 22 22 25 12 20 22 27 23 22 22 19
22 22 22 22 22 21 21 22 24 25 23 18 14 9 14 23 13 9 10 15 7 6 10 16 22 9 5 5 10 11 14 15 14 18 17 16 18 18 23 23 20 21 22 22 20
23 24 25 25 24 24 24 25 26 26 24 19 13 8 9 13 14 23 20 20 24 21 9 11 18 15 5 1 3 9 6 14 12 16 10 10 21 18 21 15 19 21 19 19 19
23 25 26 25 25 26 28 30 29 14 9 5 5 5 11 9 9 18 20 19 9 16 14 6 12 10 5 10 7 8 12 16 12 11 12 13 17 13 13 13 17 21 21 21 22
23 24 25 26 25 26 28 31 5 3 8 8 3 4 8 3 4 14 9 19 10 9 8 11 9 11 14 15 20 18 11 10 13 10 9 15 18 17 20 15 19 20 19 18 17
23 24 24 25 24 25 28 6 2 2 2 7 7 7 16 14 15 9 3 6 11 16 17 19 13 25 29 29 13 18 20 22 17 7 8 16 17 20 20 16 18 19 18 19 18
25 23 24 25 26 22 9 3 5 3 10 15 22 24 32 18 10 15 10 10 11 18 22 10 28 31 24 21 24 23 23 23 14 12 7 16 20 18 18 19 17 20 20 19 17
26 25 23 23 23 3 10 3 5 9 5 13 11 10 9 9 14 22 14 8 11 20 29 27 37 22 23 21 25 29 29 24 19 4 8 10 22 19 14 13 16 17 17 16 14
26 23 22 24 3 11 9 4 14 4 4 6 4 5 5 6 7 17 23 12 12 22 22 22 27 24 23 28 23 26 24 23 17 8 12 3 17 19 18 20 16 16 13 9 5
26 24 20 17 14 5 4 11 13 3 5 2 3 1 2 5 15 4 22 19 21 12 15 18 18 28 26 30 26 22 15 17 15 12 12 17 10 18 5 18 23 18 13 6 0
30 26 20 9 7 11 13 14 2 3 7 3 3 8 6 2 14 9 2 21 14 15 20 17 10 22 31 18 23 12 12 12 7 9 13 17 13 25 13 18 14 14 11 1 4
32 29 17 6 3 5 3 3 3 4 6 3 6 11 12 10 11 17 8 14 13 17 18 16 17 3 14 22 20 23 14 8 9 9 11 11 12 19 9 13 16 17 10 2 5
32 19 5 5 4 6 3 3 5 1 6 10 12 13 8 9 7 22 15 8 21 16 9 14 10 21 17 16 19 27 23 10 14 13 9 13 11 9 17 23 22 16 11 6 9
30 8 8 11 6 7 2 3 2 2 5 10 13 9 3 7 6 6 12 10 9 22 7 11 16 11 19 13 24 23 22 17 10 1 4 5 7 13 15 14 12 16 11 8 11
12 5 7 7 5 3 1 4 3 5 9 6 6 4 5 10 7 3 5 5 11 14 13 6 6 12 19 20 23 20 22 12 11 13 9 4 7 9 9 14 10 10 11 9 12
6 2 7 4 2 1 1 3 5 9 8 3 5 6 5 9 8 5 4 5 4 13 14 10 6 10 18 20 23 11 22 8 10 7 7 4 6 8 16 15 15 13 10 13 15
5 2 8 5 1 1 3 6 6 8 4 6 7 10 7 5 7 5 7 6 4 6 8 7 6 7 24 14 19 22 17 22 11 9 10 5 6 1 9 3 3 6 9 13 14
4 3 4 4 4 3 7 7 5 6 8 6 5 4 5 4 5 7 5 4 6 4 4 7 5 11 7 8 14 28 22 22 9 4 16 11 3 1 3 5 2 7 11 12 15
2 4 2 2 1 7 8 6 6 9 5 7 7 6 6 6 6 7 8 5 6 5 7 7 4 10 10 6 1 21 24 21 20 13 9 16 9 13 6 7 0 5 12 13 14
3 2 1 4 4 9 9 6 10 10 5 7 1 3 6 4 10 8 5 9 7 5 3 2 4 7 15 14 10 5 21 26 25 20 16 10 19 21 15 14 5 7 12 15 15
2 2 1 5 6 8 4 3 9 7 6 8 6 14 11 6 11 17 14 7 3 2 1 3 3 10 10 11 9 10 8 21 25 22 18 10 18 19 20 8 4 7 13 16 17
3 3 2 5 6 5 2 4 9 15 9 8 13 15 13 11 7 9 12 12 12 3 2 2 0 5 10 2 6 10 15 12 13 18 23 20 13 5 9 12 10 10 15 18 19
Wind_Direction
1 360 357 346 338 337 334 332 330 326 322 325 329 328 324 327 314 303 259 243 227 276 222 157 173 160 168 170 153 159 235 244 239 215 246 207 223 67 342 289 280 244 246 280 286
353 351 347 347 349 343 332 330 332 330 329 325 323 319 325 335 319 279 271 274 269 259 186 191 179 171 173 195 169 202 223 238 236 238 259 280 309 324 287 297 286 264 260 268 281
353 349 345 344 339 337 336 335 330 327 325 322 319 323 329 337 288 257 6 319 260 238 216 206 209 181 200 189 180 207 231 236 262 254 269 281 280 294 292 290 281 296 305 308 286
351 348 343 338 337 335 330 331 325 326 322 320 325 323 331 340 249 160 115 27 358 209 209 216 199 198 210 206 200 215 230 245 253 269 280 275 300 273 274 268 279 290 283 288 287
347 345 342 338 333 331 329 323 321 317 318 320 316 324 341 242 239 220 247 302 355 154 196 197 194 200 214 210 224 216 228 240 250 268 265 274 270 268 284 280 279 281 282 270 269
342 342 340 338 334 329 324 323 321 313 305 304 305 305 269 248 243 259 258 276 289 227 196 210 209 226 242 224 214 214 229 243 252 262 270 267 268 278 265 274 278 284 275 275 270
341 340 338 335 332 329 324 317 313 308 302 294 286 279 256 244 258 268 266 262 247 219 238 230 234 240 232 214 234 243 238 241 239 246 255 271 271 256 265 268 277 273 275 276 270
339 340 338 333 331 327 321 317 313 308 295 279 265 258 257 264 277 268 259 267 258 237 239 249 235 247 238 345 137 208 206 229 229 232 244 215 269 277 270 276 280 281 278 278 276
336 337 335 333 330 326 324 321 324 317 297 224 171 208 270 292 269 267 246 243 232 221 218 244 219 224 210 229 225 214 231 218 236 228 245 214 274 257 271 284 285 281 281 279 282
333 333 335 332 330 328 325 324 24 70 75 123 149 208 259 302 272 295 265 229 217 166 178 203 195 209 217 202 219 219 228 236 233 228 224 239 254 274 281 286 279 282 284 280 272
331 331 332 333 331 330 325 347 293 202 317 257 249 254 288 267 273 258 295 165 207 193 197 190 197 219 212 215 235 253 234 238 234 228 245 251 268 278 286 288 282 282 280 274 269
331 329 332 333 331 331 7 34 73 332 296 265 251 244 252 265 297 258 244 199 192 200 193 176 221 220 223 220 223 229 234 237 248 259 247 279 280 280 284 283 284 283 277 269 276
331 326 328 328 328 321 324 262 3 348 259 280 238 249 243 224 234 271 192 214 209 208 192 198 224 212 207 213 215 224 229 237 244 256 245 289 281 276 280 284 291 280 262 273 274
339 332 329 332 345 331 307 227 327 324 286 269 217 241 199 209 239 233 215 213 215 212 204 224 225 200 206 217 209 230 227 240 240 234 255 240 285 278 290 287 285 283 275 274 263
341 337 331 326 297 288 286 313 320 187 296 64 131 160 138 211 321 240 213 210 229 193 189 210 200 213 207 209 204 233 222 216 228 247 274 257 276 274 226 282 280 281 280 305 201
338 332 328 326 285 271 284 306 288 197 247 313 86 338 335 336 347 305 205 232 230 244 222 222 209 203 221 203 204 207 197 164 185 235 245 251 241 279 257 252 265 264 266 10 86
337 332 322 289 283 307 277 306 171 231 326 19 338 328 329 5 352 352 324 198 212 202 218 215 222 210 202 201 192 195 197 185 211 209 240 230 217 249 251 245 252 265 275 162 141
339 342 7 297 301 275 281 179 227 300 280 349 339 325 312 20 28 328 353 337 216 242 218 204 193 210 193 199 190 191 190 215 217 225 234 203 230 260 231 238 237 245 272 159 158
343 19 12 342 315 193 244 212 278 328 359 339 324 303 336 2 341 357 357 340 24 227 276 220 227 179 183 181 183 201 212 214 238 119 220 194 240 268 248 245 232 227 223 195 168
349 351 1 6 141 170 255 279 285 323 331 316 297 342 336 345 317 18 345 342 334 351 338 284 244 207 189 192 191 185 178 189 213 212 218 211 237 237 223 230 217 214 204 173 160
22 16 356 339 266 98 206 278 286 284 306 277 279 292 304 316 332 315 216 315 3 347 330 267 277 174 175 200 185 181 189 195 199 223 209 230 231 217 228 213 221 217 191 168 167
350 15 348 23 41 337 300 305 306 291 308 281 261 267 259 299 300 292 286 166 103 42 331 303 294 244 206 198 197 198 195 194 197 183 218 232 231 49 241 257 225 169 158 160 164
349 302 343 7 7 351 326 303 272 305 337 313 303 301 283 295 307 299 316 90 127 82 22 342 237 223 173 195 206 202 204 204 212 181 204 198 189 62 251 253 163 132 146 153 158
352 349 342 40 106 336 335 310 320 324 313 337 290 302 308 301 244 265 283 310 192 269 154 329 275 259 208 203 353 207 208 205 207 216 191 215 209 252 256 320 52 148 154 157 169
14 16 352 318 334 331 321 299 315 349 343 315 328 355 339 296 308 248 252 316 293 148 126 57 280 291 273 276 286 287 219 211 214 216 221 197 218 248 253 291 328 170 164 158 171
356 340 290 287 284 326 326 292 331 331 311 308 293 321 324 289 282 292 304 309 272 8 139 138 318 324 262 233 252 272 257 225 218 215 218 211 228 230 252 279 244 178 181 174 181
313 282 285 283 315 322 290 323 308 318 293 276 310 310 298 304 307 286 281 273 264 272 277 237 326 324 218 117 308 264 239 220 225 218 221 225 227 257 250 257 253 196 187 195 184